User: anonymous
Location: Maiden
(35.5760°N, 81.2120°W)
Time: 18:19:22
(UTC-04:00)
Language:

Cosmos 2151 - Orbit

View from above orbital plane
View from above orbital plane
View from above satellite
View from above satellite

Ground track
Ground track

The orbit data is extracted from the following two-line orbital elements,

1 21422U 91042A   14273.69922862  .00000931  00000-0  93060-4 0   275
2 21422 082.4985 108.3191 0014431 005.8263 354.3121 14.90322777260873
Epoch (UTC): 30 September 2014 16:46:53
Eccentricity: 0.0014431
inclination: 82.4985°
perigee height: 587 km
apogee height: 607 km
right ascension of ascending node: 108.3191°
argument of perigee: 5.8263°
revolutions per day: 14.90322777
mean anomaly at epoch: 354.3121°
orbit number at epoch: 26087

The dashed part of the orbit path shows where the satellite is in the earth's shadow,  

DLR